Vorticity
nan nan nan nan nan nan nan nan nan nan nan nan nan nan nan nan nan nan nan nan nan nan nan nan nan nan nan nan nan nan nan nan nan nan nan nan nan nan nan nan nan nan nan nan nan nan nan nan nan nan nan nan nan nan nan nan nan nan nan nan nan nan nan nan nan nan nan nan nan nan nan nan nan nan nan nan nan nan nan nan nan nan nan nan nan nan
nan 9 9 11 11 8 6 8 11 12 10 7 7 7 8 6 5 5 6 7 8 9 9 9 9 10 10 12 13 12 13 16 17 18 16 13 11 9 8 8 8 7 7 7 6 6 6 6 6 6 6 7 7 8 8 8 8 7 7 7 7 7 6 5 5 7 7 7 5 4 4 4 5 6 8 8 8 7 7 6 6 6 6 6 6 nan
nan 9 10 10 10 7 6 8 10 11 11 10 10 10 8 6 6 6 7 7 8 9 9 9 10 10 11 13 14 13 13 15 16 17 15 12 11 9 9 8 8 7 7 6 6 6 6 6 6 6 6 7 7 7 8 8 9 9 9 9 10 10 9 10 12 15 16 13 10 7 5 5 5 5 6 6 6 6 6 6 6 6 6 6 6 nan
nan 9 10 10 9 8 8 8 10 10 10 10 11 12 10 8 8 8 8 8 8 8 8 9 10 10 11 13 14 14 14 15 16 18 16 13 11 10 9 9 8 8 7 6 6 6 6 6 6 6 6 6 6 7 8 9 10 11 12 13 14 15 17 22 26 28 26 19 13 9 7 7 6 6 6 6 6 5 5 5 6 6 7 7 7 nan
nan 9 10 10 9 10 11 9 9 9 9 9 10 11 11 11 11 10 9 9 8 8 8 9 9 10 10 11 12 13 15 16 17 20 19 17 14 12 11 10 9 8 7 6 6 6 6 7 7 7 7 7 7 7 9 10 12 14 15 16 18 20 26 31 32 32 27 20 14 10 9 8 8 8 7 7 6 6 5 5 5 6 6 7 8 nan
nan 10 11 10 10 11 11 10 9 9 8 6 7 8 9 11 11 11 10 10 9 9 9 9 9 9 9 8 9 12 16 18 20 22 24 22 19 16 13 11 10 9 8 7 7 7 7 7 8 8 9 9 9 10 11 13 14 15 16 16 17 19 23 25 25 23 19 14 12 10 9 9 9 9 9 8 8 7 6 6 5 5 5 6 7 nan
nan 10 11 10 9 10 9 10 10 9 8 6 5 5 5 7 8 9 9 10 10 10 10 10 9 9 9 8 10 13 18 22 25 26 27 25 21 17 14 12 11 10 8 8 8 8 8 9 9 10 10 11 11 12 12 13 14 14 14 13 13 13 13 14 14 13 11 10 9 9 9 9 9 9 9 9 9 9 8 7 7 6 6 5 6 nan
nan 6 8 9 7 7 7 9 10 10 9 8 6 5 4 4 6 7 8 8 9 10 10 10 10 10 9 10 11 14 16 21 24 27 27 25 21 17 14 12 10 9 8 8 8 8 9 10 11 11 12 12 12 12 12 12 12 12 11 10 9 8 8 8 8 8 7 7 7 7 7 7 7 7 7 7 8 9 9 8 8 7 6 6 6 nan
nan 6 7 8 7 5 5 8 10 10 9 9 8 7 6 5 5 5 6 7 8 10 10 10 9 9 9 10 11 12 13 15 17 19 20 19 19 18 16 13 10 8 7 7 8 8 10 11 11 12 12 12 11 11 10 10 10 9 9 8 7 6 6 6 6 6 6 6 6 6 6 5 5 5 5 5 6 7 7 8 8 8 7 7 6 nan
nan 8 8 9 9 9 8 9 10 10 10 11 10 10 10 8 6 6 6 7 7 8 9 10 9 9 8 9 10 11 13 15 17 18 15 13 14 14 13 11 11 13 11 8 8 8 9 10 11 11 11 11 10 9 9 8 8 8 8 7 7 6 6 5 5 5 5 5 5 5 5 4 4 4 4 4 5 5 6 7 7 8 8 8 8 nan
nan 11 10 10 10 11 12 12 11 11 12 13 11 10 10 12 10 8 7 7 7 7 8 10 10 10 9 9 10 11 13 16 20 22 20 15 13 11 9 9 12 15 13 9 9 9 10 10 10 10 9 9 8 7 7 7 7 7 7 7 7 6 6 5 5 5 5 4 4 4 4 4 4 4 4 4 5 5 6 7 7 8 8 9 9 nan
nan 11 11 11 9 9 10 11 11 12 13 12 10 9 9 12 12 11 8 8 8 8 9 9 10 11 10 9 10 11 13 15 16 18 18 16 13 10 9 10 13 15 14 12 12 12 12 10 8 7 7 8 8 7 6 7 8 7 7 6 6 6 6 5 5 5 4 4 4 5 5 5 5 5 5 5 5 6 6 6 7 8 8 9 10 nan
nan 10 10 9 7 7 7 7 7 8 9 10 9 9 10 12 13 12 9 9 10 11 11 10 10 11 11 9 9 10 12 14 14 13 13 12 11 9 9 10 11 12 13 12 14 18 17 11 7 6 7 8 8 8 7 7 8 7 6 6 6 5 5 5 5 4 4 4 5 5 5 6 6 7 7 6 6 6 6 7 7 8 8 9 10 nan
nan 9 9 7 6 6 7 7 5 5 6 8 9 11 13 13 13 11 10 9 10 12 13 10 9 9 10 9 9 10 12 14 13 12 11 10 10 10 10 10 9 9 10 11 14 18 16 9 7 10 9 6 6 6 6 7 7 7 5 5 5 5 5 5 5 5 5 5 5 6 6 6 7 7 7 7 7 7 7 7 7 8 8 9 10 nan
nan 8 7 7 7 7 7 8 8 8 8 9 10 11 11 10 10 10 9 8 9 10 11 10 9 10 10 10 10 10 12 13 13 12 10 8 8 10 11 10 9 9 10 11 12 15 12 7 8 12 13 10 8 8 7 7 8 6 5 4 4 4 4 5 5 5 5 5 6 6 7 6 7 7 7 7 7 7 7 7 7 8 9 10 10 nan
nan 9 8 7 7 9 9 9 10 11 11 12 12 11 8 7 8 9 9 10 9 9 8 9 9 11 12 13 11 10 11 12 12 12 9 5 4 7 14 14 10 8 9 10 11 12 11 10 11 12 17 18 14 11 8 8 8 6 4 4 4 4 4 4 5 5 6 6 6 6 6 6 6 6 6 6 7 7 7 7 8 8 9 10 10 nan
nan 9 10 8 8 9 11 11 11 11 12 12 11 10 9 8 8 9 10 10 9 8 8 9 9 9 12 12 12 11 11 10 11 11 10 5 2 3 14 19 13 8 8 9 10 10 11 10 11 12 19 23 17 11 8 8 7 5 4 4 3 3 4 4 4 5 5 6 6 6 5 5 5 6 6 6 7 7 7 8 8 8 9 9 9 nan
nan 10 10 9 8 9 11 12 11 10 10 10 10 10 9 9 9 10 10 9 7 7 7 7 8 8 9 11 12 14 12 10 9 10 9 6 2 2 11 19 17 12 9 9 9 10 11 11 12 14 24 26 15 9 8 7 7 5 4 4 3 3 4 4 4 5 6 6 6 6 6 5 5 6 6 7 7 8 8 8 8 9 9 9 9 nan
nan 10 9 9 8 9 9 9 9 10 9 9 10 10 10 10 10 9 8 8 8 8 8 7 6 6 8 9 11 15 14 10 9 8 8 7 4 2 9 17 17 13 9 8 9 10 11 14 18 21 24 20 12 8 7 7 6 4 4 3 3 3 4 4 5 5 6 7 7 7 6 6 6 6 6 7 7 8 8 9 9 9 9 9 9 nan
nan 8 7 8 10 10 9 11 11 11 10 10 9 9 10 11 10 9 9 9 9 9 9 8 7 7 7 10 12 15 13 11 9 8 9 8 4 3 8 16 16 13 8 7 8 10 11 14 18 23 21 15 12 8 6 5 5 4 3 3 3 4 4 5 5 6 7 8 8 8 8 7 6 6 6 7 8 8 9 9 9 9 9 9 9 nan
nan 10 9 7 8 9 11 14 15 14 11 9 8 8 9 10 10 9 10 10 9 8 8 9 9 10 10 12 13 15 13 10 8 6 8 7 4 4 10 14 15 13 8 5 6 9 12 12 13 19 23 19 12 8 5 5 4 4 3 4 4 4 5 5 6 6 7 8 8 9 8 8 7 6 7 7 8 8 9 9 9 9 9 9 9 nan
nan 10 12 9 6 6 9 13 15 15 13 7 4 5 9 11 10 10 11 11 11 10 9 10 11 12 13 13 14 15 13 9 7 5 7 7 5 6 10 13 14 13 8 6 6 8 11 12 13 19 25 21 12 7 5 4 4 4 4 5 5 5 5 5 6 6 7 8 9 10 9 8 7 7 7 7 8 9 9 9 9 9 9 9 9 nan
nan 8 12 13 10 8 9 11 13 14 13 8 4 3 8 11 11 11 12 12 11 12 12 12 12 12 12 13 15 16 13 10 9 8 8 8 8 7 9 12 12 12 9 8 8 9 10 11 13 18 27 23 10 6 5 4 5 5 5 5 5 5 5 5 5 6 7 8 9 10 10 9 7 7 7 8 8 8 9 9 9 9 8 8 8 nan
nan 8 9 11 10 10 11 11 11 12 11 9 8 8 8 10 11 12 14 14 12 12 12 10 9 8 10 13 14 15 13 11 10 10 9 9 9 9 11 13 11 9 7 7 10 11 11 9 9 12 26 29 16 8 5 5 5 6 6 6 6 5 5 5 5 6 7 8 9 10 10 9 8 7 7 8 8 8 9 9 9 8 8 8 8 nan
nan 8 8 9 10 8 7 7 8 8 8 8 9 10 11 11 11 12 13 13 12 11 10 8 6 5 8 10 10 11 12 11 11 9 8 10 10 11 11 13 11 8 5 5 10 13 12 9 8 8 19 28 25 15 7 6 6 7 7 6 6 5 5 5 5 6 7 8 9 10 10 9 8 7 7 8 8 9 9 9 9 9 8 8 8 nan
nan 2 5 8 10 9 5 4 4 4 1 -0 4 7 10 11 10 8 8 10 10 10 8 6 6 5 7 7 9 10 12 11 11 9 9 10 9 9 11 13 12 10 7 6 11 14 12 9 8 8 12 21 27 23 13 9 7 7 7 6 6 5 5 5 6 6 7 8 9 10 10 9 8 7 8 8 8 9 9 9 9 9 9 9 9 nan
nan -2 2 6 9 10 8 5 4 4 -1 -5 -4 -1 3 6 6 6 5 8 9 9 6 6 6 7 7 7 9 11 13 11 10 10 11 10 9 9 12 13 13 10 7 8 12 14 12 9 9 9 8 10 17 29 26 14 11 9 7 6 5 5 5 6 6 7 8 9 10 10 10 9 8 8 8 8 9 9 9 9 9 9 9 9 9 nan
nan 2 4 6 8 9 9 7 5 4 0 -1 -2 -6 -5 1 5 6 7 10 11 9 6 6 7 8 9 9 10 12 12 11 10 9 11 10 9 10 13 13 12 10 7 7 11 13 11 10 10 11 9 7 9 20 29 26 19 13 9 6 6 6 6 7 7 8 9 9 10 10 10 9 8 8 8 9 9 10 10 9 9 8 7 6 6 nan
nan 13 12 11 10 11 10 10 10 9 5 3 1 -4 -6 -1 5 6 9 12 12 9 7 6 6 8 10 12 12 12 11 12 12 10 8 7 8 11 14 12 10 9 7 5 7 9 9 10 11 11 12 10 8 11 21 27 25 22 19 14 9 8 8 8 9 9 9 10 10 10 10 9 9 9 9 9 10 10 10 9 7 6 6 6 5 nan
nan 22 22 20 18 17 14 14 17 18 17 12 8 0 -4 -0 5 7 11 12 11 9 8 7 7 7 9 10 10 10 12 15 14 12 7 4 5 10 14 12 10 8 5 4 4 7 10 10 10 10 13 13 9 8 11 16 19 23 27 26 20 17 13 11 10 10 10 10 10 10 10 9 9 9 9 9 10 10 10 7 4 1 5 7 7 nan
nan 20 21 22 22 20 18 17 19 23 25 23 17 8 2 3 6 9 11 12 10 9 9 9 9 8 6 5 6 7 13 19 18 13 6 3 6 11 12 11 9 8 6 5 6 8 10 10 10 11 13 14 11 9 8 9 11 13 19 24 25 26 22 16 13 13 13 12 11 10 9 9 9 9 9 9 10 9 9 6 2 -1 3 8 8 nan
nan 14 16 18 18 18 17 16 16 18 22 23 20 15 10 9 9 9 10 11 10 10 10 10 10 9 7 5 5 5 11 19 21 15 4 2 6 13 13 11 9 8 6 7 11 12 12 11 11 12 12 13 12 11 10 8 8 10 12 15 18 25 25 20 16 15 17 18 16 13 10 9 9 9 9 9 10 10 9 6 1 -2 3 8 8 nan
nan 10 12 13 14 14 14 13 13 13 14 15 15 14 14 13 12 10 10 11 11 10 10 10 9 9 9 7 5 5 9 18 23 18 3 -2 5 12 14 12 11 8 5 5 10 14 14 13 12 12 12 12 12 12 12 10 8 9 11 12 12 17 21 19 17 17 18 20 21 21 17 14 12 10 10 10 10 10 10 8 3 -1 0 6 9 nan
nan 9 9 10 10 11 12 12 11 10 10 11 12 11 12 13 14 12 10 10 11 11 10 9 9 9 9 8 7 5 8 18 24 19 3 -4 4 11 14 12 10 9 5 3 5 9 12 13 11 11 13 14 12 11 12 12 11 9 10 12 11 12 14 16 15 16 16 16 18 23 24 23 22 17 13 12 11 11 11 9 6 3 -2 1 6 nan
nan 10 9 9 9 10 11 11 10 10 10 10 11 11 11 11 12 12 12 11 11 10 10 10 10 10 9 8 8 6 9 19 24 18 3 -2 3 9 13 13 11 10 7 4 3 5 9 12 12 11 13 14 12 10 10 12 12 11 10 12 12 11 11 12 13 13 14 13 13 15 20 23 25 23 21 18 15 14 12 11 8 6 2 0 0 nan
nan 11 11 10 10 10 10 10 10 10 9 10 11 12 11 11 11 12 12 12 12 11 9 10 12 14 15 14 12 10 14 21 23 17 5 -0 3 7 11 14 13 11 8 6 4 4 7 11 13 12 11 11 11 10 10 11 12 11 10 11 11 10 10 11 12 12 12 11 11 11 15 18 19 21 25 24 18 14 12 11 10 8 6 3 0 nan
nan 11 11 11 10 11 10 10 10 10 9 9 10 12 13 13 14 14 14 14 14 13 11 10 10 14 18 20 20 18 20 22 21 17 8 2 4 5 9 14 16 12 8 8 7 6 6 8 9 9 8 9 10 11 12 12 10 9 9 9 10 10 9 10 11 11 11 11 10 11 13 14 15 17 23 24 17 14 14 12 10 12 10 7 5 nan
nan 10 10 10 10 10 10 10 10 10 10 10 12 13 14 14 15 16 17 17 16 15 12 9 9 10 15 19 22 23 24 23 19 15 9 4 4 5 8 13 15 12 9 9 9 8 5 4 5 5 5 8 11 13 15 14 11 9 7 7 8 9 9 10 11 10 10 11 11 11 11 11 11 13 15 15 13 13 13 12 15 21 20 17 17 nan
nan 9 10 10 10 10 10 10 10 12 14 14 15 15 13 12 12 14 16 17 17 16 14 11 10 9 11 15 19 21 21 18 14 11 8 5 4 5 8 11 13 12 10 10 11 11 8 5 6 6 6 8 11 13 15 15 13 10 8 6 7 8 10 12 12 11 10 10 11 9 8 9 10 10 10 10 10 11 9 9 11 17 18 18 23 nan
nan 10 11 10 9 9 10 11 12 13 15 16 14 12 9 8 8 9 11 13 13 13 12 11 10 8 8 11 14 17 18 18 15 10 7 6 6 6 8 10 12 12 11 10 12 13 9 6 8 10 9 9 12 13 13 13 14 14 9 5 8 11 12 12 12 12 11 10 10 9 8 9 10 10 9 9 9 8 8 8 8 10 11 12 14 nan
nan 9 10 12 12 13 12 14 15 15 14 12 10 8 8 7 6 6 7 9 9 9 8 5 5 5 6 7 9 11 17 22 20 14 11 12 9 6 6 9 11 13 12 10 11 12 10 8 10 9 8 9 12 13 13 15 16 14 5 2 7 13 16 13 11 11 11 11 11 11 10 8 9 8 8 8 7 8 10 10 9 8 8 10 13 nan
nan 7 8 10 13 15 17 17 16 14 12 10 9 8 8 8 7 7 7 7 7 8 8 6 4 4 4 5 5 7 10 15 19 21 21 18 13 10 8 9 11 13 12 11 10 11 11 10 10 9 9 8 8 9 13 16 16 14 7 4 7 10 12 13 10 12 13 12 11 13 10 6 7 9 9 7 7 9 11 12 11 9 6 7 11 nan
nan 10 10 12 14 16 15 12 10 9 9 8 9 9 9 10 10 9 7 7 8 9 8 8 7 6 4 4 5 6 6 10 15 20 21 21 18 15 12 11 11 11 11 10 10 10 11 11 10 11 12 10 9 9 12 13 13 13 12 10 6 2 6 13 13 13 13 12 11 11 10 8 9 10 10 9 8 9 11 12 12 11 7 6 8 nan
nan 13 14 14 14 13 11 9 9 10 9 9 9 9 10 12 11 9 8 9 10 10 8 8 9 8 6 6 6 6 7 8 10 14 19 21 17 15 14 13 12 12 11 9 9 9 11 10 9 11 13 12 10 10 12 13 12 11 12 12 8 4 8 15 16 12 10 11 11 11 11 11 10 9 8 8 8 9 11 10 10 12 12 10 11 nan
nan 13 13 13 13 11 10 10 10 10 10 10 10 10 12 12 11 9 9 10 11 10 9 9 8 7 7 7 7 7 8 8 8 9 13 18 18 15 13 13 13 12 11 9 10 10 10 9 9 10 13 14 12 11 11 12 12 12 12 9 7 5 12 18 18 13 10 10 9 9 11 12 10 8 7 6 6 8 11 12 11 10 10 10 11 nan
nan 13 12 12 12 12 11 9 9 9 10 11 10 11 11 12 11 11 11 10 10 10 10 10 8 8 8 8 8 8 8 8 8 8 9 11 13 15 16 15 14 13 13 12 13 14 13 12 11 10 9 11 11 12 12 12 11 12 12 10 6 5 10 15 16 14 11 9 8 9 11 11 10 9 8 6 5 6 9 13 12 11 9 8 9 nan
nan 11 10 10 11 11 11 10 10 10 10 10 10 10 11 11 11 11 11 10 10 11 11 10 10 11 11 10 9 9 9 8 7 7 9 10 10 12 14 14 14 14 14 15 15 16 17 17 15 11 8 8 9 10 12 13 12 12 12 10 8 5 6 10 13 14 12 11 10 9 9 9 9 10 9 7 6 6 8 11 12 12 11 10 9 nan
nan 10 9 9 10 10 10 11 11 10 9 9 10 11 12 13 11 8 9 11 10 11 10 10 11 11 12 11 11 12 11 9 8 8 8 8 8 9 10 10 10 10 10 11 12 12 15 18 17 16 12 9 9 10 11 11 12 12 12 12 9 6 6 9 12 13 13 14 13 11 7 6 8 10 10 7 6 6 8 10 11 11 12 12 11 nan
nan 11 10 9 10 9 10 11 11 10 9 8 9 10 13 15 12 5 6 11 10 10 10 10 10 10 10 12 12 12 11 9 9 9 8 8 9 9 9 9 8 7 7 7 8 8 10 11 13 15 16 14 13 12 12 11 11 11 12 13 11 9 8 10 12 12 12 14 14 12 7 6 9 12 13 9 7 6 7 8 10 11 12 13 12 nan
nan 12 11 10 10 10 10 11 11 10 10 9 8 9 11 11 10 8 9 11 10 10 11 11 10 9 10 11 11 11 10 9 9 10 9 9 10 10 10 9 9 7 6 6 7 9 9 8 7 10 14 14 14 14 13 11 10 10 11 11 11 11 10 10 12 12 12 12 12 11 9 7 9 12 13 11 9 7 6 8 10 11 12 13 13 nan
nan nan nan nan nan nan nan nan nan nan nan nan nan nan nan nan nan nan nan nan nan nan nan nan nan nan nan nan nan nan nan nan nan nan nan nan nan nan nan nan nan nan nan nan nan nan nan nan nan nan nan nan nan nan nan nan nan nan nan nan nan nan nan nan nan nan nan nan nan nan nan nan nan nan nan nan nan nan nan nan nan nan nan nan nan nan
CAPE
nan nan nan nan nan nan nan nan nan nan nan nan nan nan 0 nan nan nan nan nan nan nan nan nan nan nan nan 1 0 0 nan nan 2 2 4 0 nan nan nan nan nan nan nan nan nan nan nan 0 0 0 0 0 0 0 0 nan nan nan 0 2 2 8 12 18 18 29 31 20 10 10 7 3 nan nan nan nan nan nan nan nan nan nan nan nan nan nan
nan nan nan nan nan nan nan nan nan nan nan nan nan nan 0 nan nan nan nan nan nan nan nan nan nan nan nan 0 1 1 nan 2 9 9 9 3 nan nan nan nan nan 0 nan nan nan 0 0 0 0 0 0 0 0 0 nan nan nan nan nan 3 3 10 18 26 26 39 48 28 12 12 5 3 0 0 nan nan nan nan nan nan nan nan nan nan nan nan
nan nan nan nan nan nan nan nan nan nan nan nan nan nan nan nan nan nan nan nan nan nan nan nan nan nan nan nan 2 2 0 4 13 13 8 3 1 1 nan nan nan 0 nan 0 0 0 0 1 1 0 0 0 nan nan nan nan nan nan 0 2 2 7 12 26 26 39 39 18 7 7 3 2 0 0 1 1 nan nan nan nan nan nan nan nan nan nan
nan nan nan nan nan nan nan nan nan nan nan nan nan nan nan nan nan nan nan nan nan nan nan nan nan nan nan nan 1 1 0 5 15 15 9 2 1 1 nan nan nan nan 0 0 0 0 1 1 1 0 0 0 nan nan nan nan nan nan 0 2 2 3 5 15 15 28 21 nan 1 1 1 1 1 1 1 3 1 1 nan nan nan nan nan nan nan nan
nan nan nan nan nan nan nan nan nan nan nan nan nan nan nan nan nan nan nan nan nan nan nan nan nan nan nan nan 0 0 1 6 15 15 12 3 nan nan nan nan nan 0 nan 0 0 0 1 2 2 2 1 0 nan nan nan nan nan nan 0 0 0 0 2 4 4 4 nan nan 0 0 0 0 1 1 1 1 0 0 nan nan nan nan nan nan nan nan
nan nan nan nan nan nan nan nan nan nan nan nan nan nan nan nan nan nan nan nan nan nan nan nan nan nan nan nan 1 1 0 5 12 12 10 1 nan nan nan nan nan 0 1 1 1 2 3 3 3 3 3 1 nan nan nan nan nan nan nan nan nan nan nan nan nan nan nan nan nan nan nan nan nan nan nan nan nan nan nan nan nan nan nan nan nan nan
nan nan nan nan nan nan nan nan nan nan nan nan nan nan nan nan nan nan nan nan nan nan nan nan nan nan nan nan 0 0 1 3 8 8 4 nan nan nan nan 0 0 1 2 3 3 4 4 5 5 6 4 2 0 0 0 0 0 nan nan nan nan nan nan nan nan nan nan nan nan nan nan nan nan nan nan nan nan nan nan nan nan nan nan nan nan nan
nan nan nan nan nan nan nan nan nan nan nan nan nan nan nan nan nan nan nan nan nan nan nan nan nan nan nan nan nan nan 0 1 1 1 nan nan nan nan 1 2 2 3 5 5 5 6 8 8 8 7 5 3 2 2 0 nan nan nan nan nan nan nan nan nan nan nan nan nan nan nan nan nan nan nan nan nan nan nan nan nan nan nan nan nan nan nan
nan nan nan nan nan nan nan nan nan nan nan nan nan nan nan nan nan nan nan nan nan nan nan nan nan nan nan nan nan nan nan 1 nan nan nan nan nan nan 1 3 3 4 4 5 5 7 8 9 9 7 5 4 1 1 nan nan nan nan nan nan nan nan nan 0 0 0 nan nan nan nan nan nan nan nan nan nan nan nan nan nan nan nan nan nan nan nan
nan nan nan nan nan nan nan nan nan nan nan nan nan nan nan nan nan nan nan nan nan nan nan nan nan nan nan nan nan nan nan 1 2 2 nan nan nan nan nan nan nan 2 3 5 5 7 7 8 8 7 4 2 nan nan nan nan nan nan nan nan nan nan 0 0 0 nan nan nan nan nan nan nan nan nan nan nan nan nan nan nan nan nan nan nan nan nan
nan nan nan nan nan nan nan nan nan nan nan nan nan nan nan nan nan nan nan nan nan nan nan nan nan nan nan nan nan nan nan nan nan nan nan nan nan nan nan nan nan 0 3 5 5 6 5 6 6 3 2 0 nan nan nan nan nan nan nan 0 0 0 1 0 0 nan nan nan nan nan nan nan nan nan nan nan nan nan nan nan nan nan nan nan nan nan
0 nan nan nan nan nan nan nan nan nan nan nan nan nan nan nan nan nan nan nan nan nan nan nan nan nan nan nan nan nan nan nan nan nan nan nan nan nan nan nan nan nan 1 4 4 6 6 5 5 3 1 nan nan nan nan nan nan nan nan 0 0 0 0 0 0 nan nan nan nan nan nan nan nan nan nan nan nan nan nan nan nan nan nan nan nan nan
nan nan nan nan nan nan nan nan nan nan nan nan nan nan nan nan nan nan nan nan nan nan nan nan nan nan nan nan nan nan nan nan nan nan nan nan nan nan nan nan nan nan nan nan nan nan 7 5 5 2 1 nan nan nan nan nan nan nan nan 0 0 0 nan nan nan nan nan nan nan nan nan nan nan nan nan nan nan nan nan nan nan nan nan nan nan nan
nan nan nan nan nan nan nan nan nan nan nan nan nan nan nan nan nan nan nan nan nan nan nan nan nan nan nan nan nan nan nan nan nan nan nan nan nan nan nan nan nan nan nan nan nan nan 1 nan nan nan 1 0 0 0 nan 0 0 0 nan nan nan nan nan nan nan nan nan nan nan nan nan nan nan nan nan nan nan nan nan nan nan nan nan nan nan nan
nan nan nan nan nan nan nan nan nan nan nan nan nan nan nan nan nan nan nan nan nan nan nan nan nan nan nan nan nan nan nan nan nan nan nan nan nan nan nan nan nan nan nan nan nan nan nan nan nan nan nan nan nan nan nan nan nan nan nan nan nan nan nan nan nan nan nan nan nan nan nan nan nan nan nan nan nan nan nan nan nan nan nan nan nan nan
nan nan nan nan nan nan nan nan nan nan nan nan nan nan nan nan nan nan nan nan nan nan nan nan nan nan nan nan nan nan nan nan nan nan nan nan nan nan nan nan nan nan nan nan nan nan nan nan nan nan nan nan nan nan nan 0 0 nan nan nan nan nan nan nan nan nan nan nan nan nan nan nan nan nan nan nan nan nan nan nan nan nan nan nan nan nan
nan nan nan nan nan nan nan nan nan nan nan nan nan nan nan nan nan nan nan nan nan nan nan nan nan nan nan nan nan nan nan nan nan nan nan nan nan nan nan nan nan nan nan nan nan nan nan nan nan nan nan 0 nan nan nan nan nan nan nan nan nan nan nan nan nan nan nan nan nan nan nan nan nan nan nan nan nan nan nan nan nan nan nan nan nan nan
nan nan nan nan nan nan nan nan nan nan nan nan nan nan nan nan nan nan nan nan nan nan nan nan nan nan nan nan nan nan nan nan nan nan nan nan nan nan nan nan nan nan nan nan nan nan nan nan nan nan nan 0 0 0 nan nan nan nan nan nan nan nan nan nan nan nan nan nan nan nan nan nan nan nan nan nan nan nan nan nan nan nan nan nan nan nan
nan nan nan nan nan nan nan nan nan nan nan nan nan nan nan nan nan nan nan nan nan nan nan nan nan nan nan nan nan nan nan nan nan nan nan nan nan nan nan nan nan nan nan nan nan nan nan nan nan nan nan 0 1 1 0 0 0 nan nan nan nan nan nan nan nan nan nan nan nan nan nan nan nan nan nan nan nan nan nan nan nan nan nan nan nan nan
nan nan nan nan nan nan nan nan nan nan nan nan nan nan nan nan nan nan nan nan nan nan nan nan nan nan nan nan nan nan nan nan nan nan nan nan nan nan nan nan nan nan nan nan nan nan nan nan nan nan 0 0 1 1 1 0 0 nan nan nan nan nan nan nan nan nan nan nan nan nan nan nan nan nan nan nan nan nan nan nan nan nan nan nan nan nan
nan nan nan nan nan nan nan nan nan nan nan nan nan nan nan nan nan nan nan nan nan nan nan nan nan nan nan nan nan nan nan nan nan nan nan nan nan nan nan nan nan nan nan nan nan nan nan nan nan nan 0 2 2 2 2 1 1 0 nan nan nan nan nan nan nan nan nan nan nan nan nan nan nan nan nan nan nan nan nan nan nan nan nan nan nan nan
nan nan nan nan nan nan nan nan nan nan nan nan nan nan nan nan nan nan nan nan nan nan nan nan nan nan nan nan nan nan nan nan nan nan nan nan nan nan nan nan nan nan nan nan nan nan nan nan nan nan nan 6 4 4 3 1 1 1 nan nan nan nan nan nan nan nan nan nan nan nan nan nan nan nan nan nan nan nan nan nan nan 0 0 0 0 1
nan nan nan nan nan nan nan nan nan nan nan nan nan nan nan nan nan nan nan nan nan nan nan nan nan nan nan nan nan nan nan nan nan nan nan nan nan nan nan nan nan nan nan nan nan nan nan nan nan nan nan 8 6 6 5 3 3 1 0 nan nan nan nan nan nan nan nan nan nan nan nan 0 0 0 0 nan nan nan 0 1 1 2 2 3 3 2
nan nan nan nan nan nan nan nan nan nan nan nan nan nan nan nan nan nan nan nan nan nan nan nan nan nan nan nan nan nan nan nan nan nan nan nan nan nan nan nan nan nan nan nan nan nan nan nan nan nan nan 4 9 9 7 5 5 3 1 0 0 nan nan nan nan nan nan nan nan nan nan 1 1 1 1 0 0 0 1 2 2 3 3 4 4 3
nan nan nan nan nan nan nan nan nan nan nan nan nan nan nan nan nan nan nan nan nan nan nan nan nan nan nan nan nan nan nan nan nan nan nan nan nan nan nan nan nan nan nan nan nan nan nan nan nan nan nan nan 7 7 10 8 8 5 3 1 1 0 nan nan nan nan nan nan nan nan 0 2 4 4 3 2 1 1 2 3 3 4 5 5 5 4
nan nan nan nan nan nan nan nan nan nan nan nan nan nan nan nan nan nan nan nan nan nan nan nan nan nan nan nan nan nan nan nan nan nan nan nan nan nan nan nan nan nan nan nan nan nan nan nan nan nan nan nan 9 9 10 12 12 8 5 3 3 1 0 nan nan nan nan nan nan nan 1 3 4 4 4 4 3 3 3 4 4 6 7 7 7 4
nan nan nan nan nan nan nan nan nan nan nan nan nan nan nan nan nan nan nan nan nan nan nan nan nan nan nan nan nan nan nan nan nan nan nan nan nan nan nan nan nan nan nan nan nan nan nan nan nan nan nan nan nan nan 9 14 14 12 8 4 4 2 1 nan nan nan nan nan nan nan 2 4 6 6 6 5 4 4 5 6 6 8 8 7 7 5
nan nan nan nan nan nan nan nan nan nan 1 nan nan nan nan nan nan nan nan nan nan nan nan nan nan nan nan nan nan nan nan nan nan nan nan nan nan nan nan nan nan nan nan nan nan nan nan nan nan nan nan nan nan nan nan 10 10 12 10 6 6 3 1 0 0 nan nan nan 0 0 2 5 8 8 7 7 6 6 8 8 8 10 9 0 0 nan
nan nan nan nan nan nan nan 0 1 1 3 8 3 3 nan nan nan nan nan nan nan nan nan nan nan nan nan nan nan nan nan nan nan nan nan nan nan nan nan nan nan nan nan nan nan nan nan nan nan nan nan nan nan nan nan 8 8 12 12 6 6 3 1 0 0 0 0 0 1 1 3 7 9 9 9 9 9 9 10 11 11 12 6 nan nan nan
nan nan nan nan nan nan nan nan 0 0 4 10 9 9 nan nan nan nan nan nan nan nan nan nan nan nan nan nan nan nan nan nan nan nan nan nan nan nan nan nan nan nan nan nan nan nan nan nan nan nan nan nan nan nan nan nan nan nan 0 7 7 3 1 1 1 0 0 0 2 2 5 7 11 11 11 11 11 11 10 13 13 11 0 nan nan nan
nan nan nan nan nan nan nan nan nan nan 1 7 8 8 nan nan nan nan nan nan nan nan nan nan nan nan nan nan nan nan nan nan nan nan nan nan nan nan nan nan nan nan nan nan nan nan nan nan nan nan nan nan nan nan nan nan nan nan nan nan nan nan 3 1 1 1 1 1 3 3 6 9 12 12 13 12 13 13 12 13 13 8 nan nan nan nan
nan nan nan nan nan nan nan nan nan nan nan nan nan nan nan nan nan nan nan nan nan nan nan nan nan nan nan nan nan nan nan nan nan nan nan nan nan nan nan nan nan nan nan nan nan nan nan nan nan nan nan nan nan nan nan nan nan nan nan nan nan nan nan 1 1 1 1 3 6 6 9 13 15 15 15 15 17 17 19 21 21 13 nan nan nan nan
nan nan nan nan nan nan nan nan nan nan nan nan nan nan nan nan nan nan nan nan nan nan nan nan nan nan nan nan nan nan nan nan 0 0 nan nan nan nan nan nan nan nan nan nan nan nan nan nan nan nan nan nan nan nan nan nan nan nan nan nan nan nan nan nan nan nan nan 1 3 3 13 13 17 17 17 18 21 21 22 24 24 18 nan nan nan nan
nan nan nan nan nan nan nan nan nan nan nan nan nan nan nan nan nan nan nan nan nan nan nan nan nan nan nan nan nan nan nan nan 2 2 nan nan nan nan nan nan nan nan nan nan nan nan nan nan nan nan nan nan nan nan nan nan nan nan nan nan nan nan nan nan nan nan nan nan nan nan nan 7 22 22 17 19 21 21 24 22 22 19 8 nan nan nan
nan nan nan nan nan nan nan nan nan nan nan nan nan nan nan nan nan nan nan nan nan nan nan nan nan nan nan nan nan nan nan nan nan nan 0 nan nan nan nan nan nan nan nan nan nan nan nan nan nan nan nan nan nan nan nan nan nan nan nan nan nan nan nan nan nan nan nan nan nan nan nan nan 0 0 2 13 21 21 23 21 21 18 14 2 2 nan
nan nan nan nan nan nan nan nan nan nan nan nan nan nan nan nan nan nan nan nan nan nan nan nan nan nan nan nan nan nan nan nan nan nan 0 nan nan nan nan nan nan nan nan nan nan nan nan nan nan nan nan nan nan nan nan nan nan nan nan nan nan nan nan nan nan nan nan nan nan nan nan nan nan nan nan 14 20 20 18 18 18 16 16 11 11 2
nan nan nan nan nan nan nan nan nan nan nan nan nan nan nan nan nan nan nan nan nan nan nan nan nan nan nan nan nan nan nan nan nan nan nan nan nan nan nan nan nan nan nan nan nan nan nan nan nan nan nan nan nan nan nan nan nan nan nan nan nan nan nan nan nan nan nan nan nan nan nan nan nan nan nan 14 5 5 11 15 15 12 15 13 13 8
nan nan nan nan nan nan nan nan nan nan nan nan nan nan nan nan nan nan nan nan nan nan nan nan nan nan nan nan nan nan nan nan nan nan nan nan nan nan nan nan nan nan nan nan nan nan nan nan nan nan nan nan nan nan nan nan nan nan nan nan nan nan nan nan nan nan nan nan nan nan nan nan nan nan nan nan nan nan nan nan nan nan 6 0 0 9
nan nan nan nan nan nan nan nan nan nan nan nan nan nan nan nan nan nan nan nan nan nan nan nan nan nan nan nan nan nan nan nan nan nan nan nan nan nan nan nan nan nan nan nan nan nan nan nan nan nan nan nan nan nan nan nan nan nan nan nan nan nan nan nan nan nan nan nan nan nan nan nan nan nan nan nan nan nan nan nan nan nan nan nan nan nan
nan nan nan nan nan nan nan nan nan nan nan nan nan nan nan nan nan nan nan nan nan nan nan nan nan nan nan nan nan nan nan nan nan nan nan nan nan nan nan nan nan nan nan nan nan nan nan nan nan nan nan nan nan nan nan nan nan nan nan nan nan nan nan nan nan nan nan nan nan nan nan nan nan nan nan nan nan nan nan nan nan nan nan nan nan nan
nan nan nan nan nan nan nan nan nan nan nan nan nan nan nan nan nan nan nan nan nan nan nan nan nan nan nan nan nan nan nan nan nan nan nan nan nan nan nan nan nan nan nan nan nan nan nan nan nan nan nan nan nan nan nan nan nan nan nan nan nan nan nan nan nan nan nan nan nan nan nan nan nan nan nan nan nan nan nan nan nan nan nan nan nan nan
nan nan nan nan nan nan nan nan nan nan nan nan nan nan nan nan nan nan nan nan nan nan nan nan nan nan nan nan nan nan nan nan nan nan nan nan nan nan nan nan nan nan nan nan nan nan nan nan nan nan nan nan nan nan nan nan nan nan nan nan nan nan nan nan nan nan nan nan nan nan nan nan nan nan nan nan nan nan nan nan nan nan nan nan nan nan
nan nan nan nan nan nan nan nan nan nan nan nan nan nan nan nan nan nan nan nan nan nan nan nan nan nan nan nan nan nan nan nan nan nan nan nan nan nan nan nan nan nan nan nan nan nan nan nan nan nan nan nan nan nan nan nan nan nan nan nan nan nan nan nan nan nan nan nan nan nan nan nan nan nan nan nan nan nan nan nan nan nan nan nan nan nan
nan nan nan nan nan nan nan nan nan nan nan nan nan nan nan nan nan nan nan nan nan nan nan nan nan nan nan nan nan nan nan nan nan nan nan nan nan nan nan nan nan nan nan nan nan nan nan nan nan nan nan nan nan nan nan nan nan nan nan nan nan nan nan nan nan nan nan nan nan nan nan nan nan nan nan nan nan nan nan nan nan nan nan nan nan nan
nan nan nan nan nan nan nan nan nan nan nan nan nan nan nan nan nan nan nan nan nan nan nan nan nan nan nan nan nan nan nan nan nan nan nan nan nan nan nan nan nan nan nan nan nan nan nan nan nan nan nan nan nan nan nan nan nan nan nan nan nan nan nan nan nan nan nan nan nan nan nan nan nan nan nan nan nan nan nan nan nan nan nan nan nan nan
nan nan nan nan nan nan nan nan nan nan nan nan nan nan nan nan nan nan nan nan nan nan nan nan nan nan nan nan nan nan nan nan nan nan nan nan nan nan nan nan nan nan nan nan nan nan nan nan nan nan nan nan nan nan nan nan nan nan nan nan nan nan nan nan nan nan nan nan nan nan nan nan nan nan nan nan nan nan nan nan nan nan nan nan nan nan
nan nan nan nan nan nan nan nan nan nan nan nan nan nan nan nan nan nan nan nan nan nan nan nan nan nan nan nan nan nan nan nan nan nan nan nan nan nan nan nan nan nan nan nan nan nan nan nan nan nan nan nan nan nan nan nan nan nan nan nan nan nan nan nan nan nan nan nan nan nan nan nan nan nan nan nan nan nan nan nan nan nan nan nan nan nan
nan nan nan nan nan nan nan nan nan nan nan nan nan nan nan nan nan nan nan nan nan nan nan nan nan nan nan nan nan nan nan nan nan nan nan nan nan nan nan nan nan nan nan nan nan nan nan nan nan nan nan nan nan nan nan nan nan nan nan nan nan nan nan nan nan nan nan nan nan nan nan nan nan nan nan nan nan nan nan nan nan nan nan nan nan nan
nan nan nan nan nan nan nan nan nan nan nan nan nan nan nan nan nan nan nan nan nan nan nan nan nan nan nan nan nan nan nan nan nan nan nan nan nan nan nan nan nan nan nan nan nan nan nan nan nan nan nan nan nan nan nan nan nan nan nan nan nan nan nan nan nan nan nan nan nan nan nan nan nan nan nan nan nan nan nan nan nan nan nan nan nan nan
nan nan nan nan nan nan nan nan nan nan nan nan nan nan nan nan nan nan nan nan nan nan nan nan nan nan nan nan nan nan nan nan nan nan nan nan nan nan nan nan nan nan nan nan nan nan nan nan nan nan nan nan nan nan nan nan nan nan nan nan nan nan nan nan nan nan nan nan nan nan nan nan nan nan nan nan nan nan nan nan nan nan nan nan nan nan
nan nan nan nan nan nan nan nan nan nan nan nan nan nan nan nan nan nan nan nan nan nan nan nan nan nan nan nan nan nan nan nan nan nan nan nan nan nan nan nan nan nan nan nan nan nan nan nan nan nan nan nan nan nan nan nan nan nan nan nan nan nan nan nan nan nan nan nan nan nan nan nan nan nan nan nan nan nan nan nan nan nan nan nan nan nan